ONEWEB-0164, 48063

Orbit data source: Space-Track

ONEWEB-0164, 48063 is a payload satellite owned by One Web (NAA) (UK) in LEO that was launched on Thu, 25 Mar 2021 UTC via a SOYUZ-2-1B launch vehicle from the Vostochny Cosmodrome (VOSTO). Payload-class satellites include a variety of spacecraft equipped with specific instruments for various scientific and technological missions. These include communications satellites like Starlink; space stations such as the ISS; scientific satellites like the Hubble; Earth observation satellites from companies like Planet Labs, Umbra, and HawkEye 360; GPS; miniature CubeSats for education and research; and military/defense satellites.

Loading next visibility...
Identifier
48063, 2021-025X
Orbit
LEO
Country
Flag of UKUK
Related business
Manufacturer
One Web
Mission
Operational Commercial Communications
Bus & Motor
ARROW, Unknown motor
Mass
148 kg wet, ~140 kg dry
Launch date (UTC)
2021-03-25 (5 years ago)
Launch vehicle
SOYUZ-2-1B
Launch site
Vostochny Cosmodrome (VOSTO)
Object type
Payload
Rocket body
Debris
Shape & HBR
Trap Box + 2 Pan, 6.7 m
Radar Cross Section
3.464 m², Large (>1 m²)

Expand to show TLE details & history
Last TLE update: 2 days ago

TLE from 2 days ago
0 ONEWEB-0164
1 48063U 21025X   26171.44795791 -.00000191  00000-0 -55659-3 0  9990
2 48063  87.8967 319.5714 0001750  96.8147 263.3182 13.13471010254014
Epoch: 2026-06-20T10:45Z
TLE epoch observation values (Epoch: 2026-06-20T10:45:03.563Z)
Latitude
0.00005°
Longitude
-110.35588°
Altitude
1,212.808 km
Speed
7.248 km/s
True Right ascension
21h 18m 17s
True Declination
0° 00' 00"
Sunlit
Object was in full shadow at epoch
Visualization orbit readout
Latitude
Unknown
Longitude
Unknown
Altitude
Unknown
Speed
Unknown
Apparent Right ascension
Unknown
Apparent Declination
Unknown
Sunlit
N/A
Visualization observer readout
Local Sidereal Time
21:26:33
Azimuth
Unknown
Elevation
Unknown
Doppler factor
Unknown
Orbital elements
Apogee altitude
1,208.204 km
Perigee altitude
1,205.549 km
Semi-major axis
7,585.014 km
Eccentricity
0.00018
Inclination
87.8967°
RAAN
319.5714°
Arg. of periapsis
96.8147°
True anomaly
263.29828°
Mean anomaly
263.3182°
Eccentric anomaly
263.30824°
Mean motion
3.28555 °/min
Orbital period
109.57 mins
BSTAR
-0.00055659
Loading maneuver chart data...
Computing Atmospheric mass density...
Loading historical data...
Loading historical data...
Loading historical data...
Loading historical data...
Loading historical data...
Loading historical data...
Loading historical data...

Documentation

Showing up to 5 results
|